Regional Weather Roundup
Issued by NWS

Home | Current Version | Previous Version | Text Only | Print | Product List | Glossary Off
Versions: 1 2 3 4 5 6 7 8 9 10 11 12 13 14 15 16 17 18 19 20 21 22 23 24 25 26 27 28 29 30 31 32 33 34 35 36 37 38 39 40 41 42 43 44 45 46 47 48 49 50

000
ASUS45 KABQ 231501
RWRNM
NEW MEXICO REGIONAL WEATHER ROUNDUP
NATIONAL WEATHER SERVICE ALBUQUERQUE NM
900 AM MDT SAT JUL 23 2016

NOTE: "FAIR" MEANS FEW OR NO CLOUDS BELOW 12,000 FEET AGL WITH NO
       SIGNIFICANT WEATHER OR OBSTRUCTIONS TO VISION.

      THIS PRODUCT IS RELEASED AS TWO VERSIONS.  ONE VERSION NEAR
      THE TOP OF THE HOUR CONTAINING PRELIMINARY DATA FROM ALBUQUERQUE
      AND OTHER STATIONS.  A FINAL VERSION WITH ADDITIONAL DATA IS
      ISSUED ABOUT 10 MINUTES AFTER THE HOUR.

NMZ501-503-504-510>518-231600-
NORTHWEST PLATEAU/NORTHCENTRAL MOUNTAINS

CITY           SKY/WX    TMP DP  RH WIND       PRES   REMARKS
FARMINGTON     FAIR      72  50  45 CALM      30.22R
LOS ALAMOS     FAIR      76  47  36 NE7       30.33S
SANTA FE       FAIR      80  49  33 NW12      30.26R
TAOS           FAIR      72  43  35 N7        30.35R
ANGEL FIRE     FAIR      65  48  53 CALM      30.43S

$$
NMZ402-403-502-505>509-231600-
WESTCENTRAL MOUNTAINS/SOUTHWEST MOUNTAINS

CITY           SKY/WX    TMP DP  RH WIND       PRES   REMARKS
GALLUP         FAIR      73  51  46 CALM      30.31R
GRANTS         FAIR      73  50  43 NW5       30.32S
SILVER CITY    FAIR      83  47  28 N3        30.19R

$$
NMZ407-409-411-412-231600-
SOUTHERN DESERTS

CITY           SKY/WX    TMP DP  RH WIND       PRES   REMARKS
LORDSBURG      FAIR      81  52  36 CALM      30.11S
DEMING         FAIR      86  50  28 E9        30.10R
LAS CRUCES     FAIR      87  42  20 E7        30.14R
ALAMOGORDO     FAIR      86  45  23 W6        30.12R
T OR C         FAIR      85  48  27 N8        30.14S

$$
NMZ519>523-231600-
CENTRAL VALLEYS/CENTRAL HIGHLANDS

CITY           SKY/WX    TMP DP  RH WIND       PRES   REMARKS
ALBUQUERQUE    FAIR      78  50  37 SE3       30.20S
DOUBLE EAGLE   MOSUNNY   81  50  34 NW6       30.24S
MORIARTY ARPT  FAIR      81  43  26 N5        30.26R
CLINES CORNERS FAIR      81  45  28 SW5       30.30S
BELEN          FAIR      79  47  32 CALM      30.20R
SOCORRO        FAIR      81  48  31 NW3       30.16S

$$
NMZ524>526-539-540-231600-
SOUTHCENTRAL MOUNTAINS

CITY           SKY/WX    TMP DP  RH WIND       PRES   REMARKS
RUIDOSO        NOT AVBL

$$
NMZ527>531-231600-
NORTHEAST HIGHLANDS/NORTHEAST PLAINS

CITY           SKY/WX    TMP DP  RH WIND       PRES   REMARKS
LAS VEGAS      FAIR      78  45  30 N5        30.27S
RATON          FAIR      75  46  35 S5        30.22S
CLAYTON        FAIR      85  47  26 SW13      30.11R

$$
NMZ532>537-231600-
EASTCENTRAL PLAINS

CITY           SKY/WX    TMP DP  RH WIND       PRES   REMARKS
TUCUMCARI      FAIR      87  52  29 SW18      30.08S
CANNON AFB     FAIR      84  55  36 S12       30.12F
CLOVIS AIRPORT FAIR      82  55  39 S16       30.13S

$$
NMZ028-029-538-231600-
SOUTHEAST PLAINS

CITY           SKY/WX    TMP DP  RH WIND       PRES   REMARKS
ROSWELL        FAIR      84  55  36 S17       30.09R
ARTESIA        FAIR      82  57  42 SE14      30.09S
CARLSBAD       FAIR      83  57  41 SE8       30.06S
HOBBS          SUNNY     82  55  39 S15G22    30.12R


$$




USA.gov is the U.S. government's official web portal to all federal, state and local government web resources and services.